DW4207 Weather Reports


Display with metric or nautical units.
time (UTC)temp
F
wind
direction
speed
MPH
gust
MPH
rain 1hr
in
rain 24hr
in
rain mn
in
humidity
%
barometer
mb
20260905065004 76 0 0.0 0.0 0.00 0.00 0.00 90 1013.0
20260905064004 75 0 0.0 0.0 0.00 0.00 0.00 89 1013.1
20260905063004 76 0 0.0 0.0 0.00 0.00 0.00 89 1013.4
20260905062025 76 0 0.0 0.0 0.00 0.00 0.00 90 1013.6
20260905061004 75 0 0.0 0.0 0.00 0.00 0.00 90 1013.7
20260905060004 75 0 0.0 0.0 0.00 0.00 0.00 90 1013.8
20260905055004 76 0 0.0 0.0 0.00 0.00 0.00 90 1013.8
20260905054025 76 0 0.0 0.0 0.00 0.00 0.00 90 1013.9
20260905053004 76 0 0.0 0.0 0.00 0.00 0.00 90 1013.9
20260905052004 76 0 0.0 0.0 0.00 0.00 0.00 90 1014.0
20260905051025 76 0 0.0 0.0 0.00 0.00 0.00 89 1014.0
20260905050004 76 0 0.0 0.0 0.00 0.00 0.00 89 1014.1
20260905045025 76 0 0.0 0.0 0.00 0.00 0.00 89 1014.1
20260905044004 76 0 0.0 0.0 0.00 0.00 0.00 89 1014.1
20260905043004 77 0 0.0 0.0 0.00 0.00 0.00 89 1014.2
20260905042004 77 0 0.0 0.0 0.00 0.00 0.00 89 1014.2
20260905041004 77 0 0.0 0.0 0.00 0.00 0.00 89 1014.1
20260905040005 77 0 0.0 0.0 0.00 0.00 0.00 88 1014.2
20260905035004 77 0 0.0 0.0 0.00 0.00 0.00 88 1014.2
20260905034004 77 0 0.0 0.0 0.00 0.00 0.00 87 1014.1
20260905033025 78 0 0.0 0.0 0.00 0.00 0.00 87 1014.2
20260905032004 78 0 0.0 0.0 0.00 0.00 0.00 86 1014.2
20260905031004 78 0 0.0 0.0 0.00 0.00 0.00 86 1014.4
20260905030025 78 0 0.0 0.0 0.00 0.00 0.00 86 1014.3
20260905025025 78 0 0.0 0.0 0.00 0.00 0.00 87 1014.1
20260905024004 78 0 0.0 0.0 0.00 0.00 0.00 86 1014.1
20260905023004 79 0 0.0 0.0 0.00 0.00 0.00 86 1014.1
20260905022004 79 0 0.0 0.0 0.00 0.00 0.00 86 1014.0
20260905021004 79 0 0.0 0.0 0.00 0.00 0.00 84 1013.9
20260905020004 79 0 0.0 0.0 0.00 0.00 0.00 84 1014.0
20260905015004 80 0 0.0 0.0 0.00 0.00 0.00 84 1013.9
20260905014004 80 0 0.0 0.0 0.00 0.00 0.00 82 1013.8
20260905013004 80 0 0.0 0.0 0.00 0.00 0.00 82 1013.8
20260905012004 81 0 0.0 0.0 0.00 0.00 0.00 80 1013.8
20260905011004 82 0 0.0 0.0 0.00 0.00 0.00 79 1013.8
20260905010004 83 0 0.0 0.0 0.00 0.00 0.00 79 1013.8
20260905005004 83 0 0.0 1.0 0.00 0.00 0.00 78 1013.5
20260905004004 83 202 0.0 2.0 0.00 0.00 0.00 77 1013.4
20260905003004 84 0 0.0 0.0 0.00 0.00 0.00 74 1013.4
20260905002025 85 202 0.0 2.0 0.00 0.00 0.00 73 1013.4
20260905001004 86 202 0.0 2.0 0.00 0.00 0.00 71 1013.6
20260905000004 88 208 1.0 2.0 0.00 0.00 0.00 68 1013.6
20260904235004 88 201 1.0 3.0 0.00 0.00 0.00 67 1013.6
20260904234004 89 228 0.0 2.0 0.00 0.00 0.00 66 1013.6
20260904233004 90 228 1.0 2.0 0.00 0.00 0.00 64 1013.6
20260904232005 90 225 1.0 4.0 0.00 0.00 0.00 62 1013.6
20260904231004 91 220 1.0 6.0 0.00 0.00 0.00 61 1013.4
20260904230025 91 232 2.0 6.0 0.00 0.00 0.00 61 1013.3
20260904225004 92 231 2.0 6.0 0.00 0.00 0.00 59 1013.4
20260904224004 92 228 2.0 7.0 0.00 0.00 0.00 58 1013.3
20260904223004 92 232 3.0 7.0 0.00 0.00 0.00 58 1013.3
20260904222004 93 246 2.0 6.0 0.00 0.00 0.00 57 1013.2
20260904221004 93 236 3.0 5.0 0.00 0.00 0.00 56 1013.2
20260904220025 93 230 3.0 11.0 0.00 0.00 0.00 54 1013.2
20260904215004 92 240 3.0 7.0 0.00 0.00 0.00 58 1013.2
20260904214004 93 238 2.0 10.0 0.00 0.00 0.00 56 1013.1
20260904213004 94 250 3.0 10.0 0.00 0.00 0.00 55 1013.1
20260904212004 94 257 2.0 7.0 0.00 0.00 0.00 53 1013.2
20260904211004 94 236 4.0 11.0 0.00 0.00 0.00 54 1013.2
20260904210004 94 281 2.0 8.0 0.00 0.00 0.00 58 1013.3
20260904205004 94 266 2.0 8.0 0.00 0.00 0.00 57 1013.5
20260904204004 94 337 2.0 5.0 0.00 0.00 0.00 54 1013.6
20260904203025 92 338 2.0 5.0 0.00 0.00 0.00 56 1013.7
20260904202025 93 342 3.0 7.0 0.00 0.00 0.00 59 1013.9
20260904201004 93 348 3.0 8.0 0.00 0.00 0.00 55 1014.1
20260904200004 94 321 3.0 9.0 0.00 0.00 0.00 54 1014.3
20260904195004 95 318 3.0 10.0 0.00 0.00 0.00 54 1014.3
20260904194004 95 287 3.0 10.0 0.00 0.00 0.00 51 1014.5
20260904193025 95 248 3.0 8.0 0.00 0.00 0.00 51 1014.6
20260904192004 95 245 4.0 9.0 0.00 0.00 0.00 54 1014.8
20260904191004 95 312 3.0 8.0 0.00 0.00 0.00 53 1015.0
20260904190004 95 344 3.0 7.0 0.00 0.00 0.00 55 1015.2
20260904185004 94 248 2.0 8.0 0.00 0.00 0.00 56 1015.3
20260904184025 94 326 3.0 8.0 0.00 0.00 0.00 54 1015.4
20260904183025 94 258 3.0 8.0 0.00 0.00 0.00 54 1015.5
20260904182004 93 236 3.0 8.0 0.00 0.00 0.00 58 1015.5
20260904181004 93 267 2.0 6.0 0.00 0.00 0.00 60 1015.5
20260904180025 92 349 3.0 9.0 0.00 0.00 0.00 58 1015.6
20260904175004 93 303 3.0 10.0 0.00 0.00 0.00 56 1016.1
20260904174025 92 258 2.0 7.0 0.00 0.00 0.00 61 1016.1
20260904173004 93 234 5.0 10.0 0.00 0.00 0.00 59 1016.1
20260904172004 93 244 4.0 9.0 0.00 0.00 0.00 58 1016.2
20260904171004 91 242 3.0 10.0 0.00 0.00 0.00 62 1016.3
20260904170004 93 249 3.0 8.0 0.00 0.00 0.00 57 1016.4
20260904165004 93 262 3.0 10.0 0.00 0.00 0.00 58 1016.4
20260904164004 93 237 3.0 7.0 0.00 0.00 0.00 60 1016.3
20260904163004 93 257 3.0 7.0 0.00 0.00 0.00 62 1016.5
20260904162004 92 238 4.0 13.0 0.00 0.00 0.00 60 1016.5
20260904161004 92 234 4.0 9.0 0.00 0.00 0.00 61 1016.5
20260904160004 91 232 5.0 12.0 0.00 0.00 0.00 61 1016.5
20260904155004 91 219 3.0 7.0 0.00 0.00 0.00 64 1016.4
20260904154004 90 233 4.0 10.0 0.00 0.00 0.00 63 1016.4
20260904153004 90 218 4.0 10.0 0.00 0.00 0.00 63 1016.5
20260904152004 90 219 4.0 8.0 0.00 0.00 0.00 64 1016.6
20260904151004 90 232 3.0 8.0 0.00 0.00 0.00 66 1016.6
20260904150004 89 237 3.0 9.0 0.00 0.00 0.00 66 1016.5
20260904145004 89 226 3.0 7.0 0.00 0.00 0.00 70 1016.5
20260904144004 88 228 2.0 7.0 0.00 0.00 0.00 68 1016.5
20260904143004 88 238 2.0 6.0 0.00 0.00 0.00 70 1016.4
20260904142004 87 227 2.0 7.0 0.00 0.00 0.00 70 1016.3
20260904141025 86 242 3.0 7.0 0.00 0.00 0.00 70 1016.3
20260904140004 86 236 3.0 5.0 0.00 0.00 0.00 71 1016.1
20260904135004 85 240 2.0 7.0 0.00 0.00 0.00 71 1016.2
20260904134004 84 224 3.0 8.0 0.00 0.00 0.00 72 1016.2
20260904133004 84 229 2.0 6.0 0.00 0.00 0.00 73 1016.3
20260904132004 83 223 2.0 5.0 0.00 0.00 0.00 74 1016.2
20260904131004 82 210 2.0 5.0 0.00 0.00 0.00 76 1016.1
20260904130004 82 209 2.0 4.0 0.00 0.00 0.00 76 1016.2
20260904125004 81 215 2.0 4.0 0.00 0.00 0.00 77 1016.2
20260904124004 80 209 1.0 3.0 0.00 0.00 0.00 78 1016.2
20260904123004 79 212 1.0 3.0 0.00 0.00 0.00 80 1016.1
20260904122004 78 214 1.0 2.0 0.00 0.00 0.00 80 1016.1
20260904121004 78 0 0.0 0.0 0.00 0.00 0.00 82 1016.0
20260904120004 77 0 0.0 0.0 0.00 0.00 0.00 84 1015.9
20260904115004 76 0 0.0 0.0 0.00 0.00 0.00 84 1015.9
20260904114004 76 0 0.0 2.0 0.00 0.00 0.00 84 1015.6
20260904113004 76 202 0.0 2.0 0.00 0.00 0.00 85 1015.4
20260904112004 76 0 0.0 0.0 0.00 0.00 0.00 84 1015.3
20260904111004 76 226 0.0 2.0 0.00 0.00 0.00 84 1015.3
20260904110004 76 208 0.0 2.0 0.00 0.00 0.00 85 1015.2
20260904105004 76 208 0.0 2.0 0.00 0.00 0.00 85 1015.1
20260904104004 76 207 0.0 2.0 0.00 0.00 0.00 85 1015.0
20260904103004 76 213 1.0 2.0 0.00 0.00 0.00 85 1015.0
20260904102004 76 203 0.0 2.0 0.00 0.00 0.00 85 1015.0
20260904101004 77 171 0.0 2.0 0.00 0.00 0.00 85 1015.0
20260904100004 76 158 0.0 3.0 0.00 0.00 0.00 86 1014.9
20260904095004 76 0 0.0 0.0 0.00 0.00 0.00 86 1015.0
20260904094025 76 184 0.0 2.0 0.00 0.00 0.00 87 1015.0
20260904093004 76 158 0.0 3.0 0.00 0.00 0.00 88 1015.0
20260904092004 75 0 0.0 0.0 0.00 0.00 0.00 90 1015.0
20260904091025 75 0 0.0 0.0 0.00 0.00 0.00 90 1015.0
20260904090004 74 0 0.0 0.0 0.00 0.00 0.00 90 1014.9
20260904085004 74 0 0.0 0.0 0.00 0.00 0.00 90 1014.8
20260904084004 74 0 0.0 0.0 0.00 0.00 0.00 89 1014.8
20260904083025 75 0 0.0 0.0 0.00 0.00 0.00 89 1014.7
20260904082025 76 0 0.0 0.0 0.00 0.00 0.00 89 1014.8
20260904081004 76 0 0.0 0.0 0.00 0.00 0.00 88 1014.8
20260904080025 76 0 0.0 0.0 0.00 0.00 0.00 88 1015.0
20260904075004 75 350 1.0 3.0 0.00 0.00 0.00 89 1015.2
20260904074025 75 351 0.0 3.0 0.00 0.00 0.00 89 1015.3
20260904073025 75 0 0.0 0.0 0.00 0.00 0.00 89 1015.4
20260904072004 75 0 0.0 0.0 0.00 0.00 0.00 89 1015.4
20260904071004 75 0 0.0 0.0 0.00 0.00 0.00 89 1015.4
20260904070004 76 0 0.0 0.0 0.00 0.00 0.00 89 1015.4